Location: Fort Wayne
(41.1310°N, 85.1290°W)
Time: 23:30:07
(UTC-05:00)

ISS - Visible Passes

Search period start: 22 January 2017 00:00
Search period end: 01 February 2017 00:00
Orbit: 399 x 410 km, 51.6° (Epoch: 23 January)

Date Brightness Start Highest point End Pass type
(mag) Time Alt. Az. Time Alt. Az. Time Alt. Az.
26 Jan -1.1 19:42:00 10° SSW 19:43:08 18° S 19:43:08 18° S visible
27 Jan -1.3 18:50:51 10° SSE 18:52:45 15° SE 18:53:29 14° ESE visible
27 Jan -0.2 20:25:38 10° WSW 20:26:11 14° WSW 20:26:11 14° WSW visible
28 Jan -3.3 19:33:20 10° SW 19:36:25 67° SSE 19:36:25 67° SSE visible
29 Jan -2.4 18:41:23 10° SSW 18:44:22 34° SE 18:46:35 16° ENE visible
29 Jan -0.7 20:17:53 10° W 20:19:15 20° WNW 20:19:15 20° WNW visible
30 Jan -2.7 19:25:14 10° WSW 19:28:26 50° NNW 19:29:19 37° NNE visible
31 Jan -3.3 18:32:49 10° SW 18:36:05 87° SSE 18:39:18 10° NE visible
31 Jan -0.7 20:10:25 10° WNW 20:11:58 18° NW 20:11:58 18° NW visible
